Time,TemperatureF,DewpointF,PressureIn,WindDirection,WindDirectionDegrees,WindSpeedMPH,WindSpeedGustMPH,Humidity,HourlyPrecipIn,Conditions,Clouds,dailyrainin,SoftwareType,DateUTC
2013-02-15 00:06:00,32.1,25.0,29.94,West,279,2.0,6.0,75,0.00,,,0.00,weatherlink.com 1.10,2013-02-15 05:06:00,
2013-02-15 00:21:00,31.8,25.0,29.94,NW,316,1.0,7.0,76,0.00,,,0.00,weatherlink.com 1.10,2013-02-15 05:21:00,
2013-02-15 00:36:00,31.4,25.0,29.94,NW,317,0.0,4.0,76,0.00,,,0.00,weatherlink.com 1.10,2013-02-15 05:36:00,
2013-02-15 00:51:00,30.9,25.0,29.94,West,273,2.0,3.0,77,0.00,,,0.00,weatherlink.com 1.10,2013-02-15 05:51:00,
2013-02-15 01:06:00,30.6,25.0,29.94,WNW,284,4.0,4.0,78,0.00,,,0.00,weatherlink.com 1.10,2013-02-15 06:06:00,
2013-02-15 01:21:00,30.5,24.0,29.95,WNW,297,0.0,3.0,78,0.00,,,0.00,weatherlink.com 1.10,2013-02-15 06:21:00,
2013-02-15 01:36:00,30.1,25.0,29.94,West,263,0.0,5.0,80,0.00,,,0.00,weatherlink.com 1.10,2013-02-15 06:36:00,
2013-02-15 01:52:00,29.9,24.0,29.94,West,280,0.0,6.0,80,0.00,,,0.00,weatherlink.com 1.10,2013-02-15 06:52:00,
2013-02-15 02:21:00,29.8,25.0,29.95,WNW,287,0.0,4.0,81,0.00,,,0.00,weatherlink.com 1.10,2013-02-15 07:21:00,
2013-02-15 02:37:00,29.7,25.0,29.96,WSW,251,2.0,3.0,82,0.00,,,0.00,weatherlink.com 1.10,2013-02-15 07:37:00,
2013-02-15 02:51:00,29.9,25.0,29.96,West,272,0.0,4.0,82,0.00,,,0.00,weatherlink.com 1.10,2013-02-15 07:51:00,
2013-02-15 03:06:00,30.1,25.0,29.96,WNW,298,3.0,7.0,81,0.00,,,0.00,weatherlink.com 1.10,2013-02-15 08:06:00,
2013-02-15 03:21:00,29.8,25.0,29.96,WNW,298,0.0,3.0,81,0.00,,,0.00,weatherlink.com 1.10,2013-02-15 08:21:00,
2013-02-15 03:36:00,29.3,24.0,29.96,West,266,0.0,4.0,81,0.00,,,0.00,weatherlink.com 1.10,2013-02-15 08:36:00,
2013-02-15 03:51:00,28.9,24.0,29.96,WSW,246,4.0,5.0,81,0.00,,,0.00,weatherlink.com 1.10,2013-02-15 08:51:00,
2013-02-15 04:07:00,28.8,24.0,29.96,West,267,0.0,4.0,81,0.00,,,0.00,weatherlink.com 1.10,2013-02-15 09:07:00,
2013-02-15 04:22:00,29.1,24.0,29.97,West,272,0.0,4.0,82,0.00,,,0.00,weatherlink.com 1.10,2013-02-15 09:22:00,
2013-02-15 04:37:00,29.5,24.0,29.96,WSW,238,0.0,5.0,80,0.00,,,0.00,weatherlink.com 1.10,2013-02-15 09:37:00,
2013-02-15 04:52:00,29.5,24.0,29.97,WSW,254,0.0,5.0,80,0.00,,,0.00,weatherlink.com 1.10,2013-02-15 09:52:00,
2013-02-15 05:07:00,29.8,25.0,29.98,West,275,1.0,4.0,81,0.00,,,0.00,weatherlink.com 1.10,2013-02-15 10:07:00,
2013-02-15 05:22:00,30.2,25.0,29.98,WSW,253,0.0,4.0,80,0.00,,,0.00,weatherlink.com 1.10,2013-02-15 10:22:00,
2013-02-15 05:37:00,30.3,25.0,29.99,NW,304,0.0,1.0,81,0.00,,,0.00,weatherlink.com 1.10,2013-02-15 10:37:00,
2013-02-15 05:52:00,30.4,25.0,29.99,West,273,2.0,4.0,81,0.00,,,0.00,weatherlink.com 1.10,2013-02-15 10:52:00,
2013-02-15 06:07:00,30.7,25.0,29.99,WNW,303,0.0,5.0,80,0.00,,,0.00,weatherlink.com 1.10,2013-02-15 11:07:00,
2013-02-15 06:22:00,30.5,25.0,30.00,NW,308,0.0,3.0,81,0.00,,,0.00,weatherlink.com 1.10,2013-02-15 11:22:00,
2013-02-15 06:37:00,30.7,26.0,30.00,WNW,288,0.0,4.0,82,0.00,,,0.00,weatherlink.com 1.10,2013-02-15 11:37:00,
2013-02-15 06:52:00,30.8,26.0,30.00,WNW,296,4.0,9.0,82,0.00,,,0.00,weatherlink.com 1.10,2013-02-15 11:52:00,
2013-02-15 07:07:00,30.7,26.0,30.00,WNW,296,2.0,7.0,82,0.00,,,0.00,weatherlink.com 1.10,2013-02-15 12:07:00,
2013-02-15 07:22:00,30.4,26.0,30.01,NNW,327,6.0,9.0,84,0.00,,,0.00,weatherlink.com 1.10,2013-02-15 12:22:00,
2013-02-15 07:37:00,30.0,26.0,30.02,NW,306,5.0,7.0,86,0.00,,,0.00,weatherlink.com 1.10,2013-02-15 12:37:00,
2013-02-15 07:52:00,29.8,26.0,30.02,NW,323,3.0,6.0,87,0.00,,,0.00,weatherlink.com 1.10,2013-02-15 12:52:00,
2013-02-15 08:07:00,29.8,27.0,30.03,NW,323,4.0,7.0,88,0.00,,,0.00,weatherlink.com 1.10,2013-02-15 13:07:00,
2013-02-15 08:22:00,29.6,27.0,30.04,North,5,6.0,6.0,89,0.00,,,0.00,weatherlink.com 1.10,2013-02-15 13:22:00,
2013-02-15 08:37:00,28.8,26.0,30.04,NNW,329,4.0,8.0,88,0.00,,,0.00,weatherlink.com 1.10,2013-02-15 13:37:00,
2013-02-15 08:52:00,28.8,26.0,30.05,NNW,345,5.0,8.0,88,0.00,,,0.00,weatherlink.com 1.10,2013-02-15 13:52:00,
2013-02-15 09:07:00,28.8,26.0,30.06,NNW,333,7.0,10.0,88,0.00,,,0.00,weatherlink.com 1.10,2013-02-15 14:07:00,
2013-02-15 09:22:00,28.5,25.0,30.07,NNW,343,5.0,12.0,87,0.00,,,0.00,weatherlink.com 1.10,2013-02-15 14:22:00,
2013-02-15 09:38:00,28.5,25.0,30.07,NNW,340,11.0,11.0,87,0.00,,,0.00,weatherlink.com 1.10,2013-02-15 14:38:00,
2013-02-15 09:52:00,28.6,25.0,30.07,North,5,8.0,12.0,87,0.00,,,0.00,weatherlink.com 1.10,2013-02-15 14:52:00,
2013-02-15 10:07:00,28.8,25.0,30.08,NNW,334,8.0,10.0,87,0.00,,,0.00,weatherlink.com 1.10,2013-02-15 15:07:00,
2013-02-15 10:22:00,28.6,25.0,30.08,North,349,7.0,10.0,85,0.00,,,0.00,weatherlink.com 1.10,2013-02-15 15:22:00,
2013-02-15 10:37:00,28.7,25.0,30.09,NNW,327,8.0,11.0,85,0.00,,,0.00,weatherlink.com 1.10,2013-02-15 15:37:00,
2013-02-15 10:52:00,28.9,25.0,30.09,NNE,15,7.0,11.0,85,0.00,,,0.00,weatherlink.com 1.10,2013-02-15 15:52:00,
2013-02-15 11:07:00,29.2,25.0,30.09,NW,320,7.0,13.0,84,0.00,,,0.00,weatherlink.com 1.10,2013-02-15 16:07:00,
2013-02-15 11:22:00,28.8,25.0,30.10,NNW,332,10.0,14.0,84,0.00,,,0.00,weatherlink.com 1.10,2013-02-15 16:22:00,
2013-02-15 11:38:00,28.8,24.0,30.10,NNW,338,7.0,13.0,83,0.00,,,0.00,weatherlink.com 1.10,2013-02-15 16:38:00,
2013-02-15 11:53:00,29.0,24.0,30.10,NNW,338,7.0,12.0,82,0.00,,,0.00,weatherlink.com 1.10,2013-02-15 16:53:00,
2013-02-15 12:08:00,29.0,24.0,30.10,NNW,327,9.0,12.0,82,0.00,,,0.00,weatherlink.com 1.10,2013-02-15 17:08:00,
2013-02-15 12:23:00,29.4,24.0,30.10,NNW,329,7.0,12.0,80,0.00,,,0.00,weatherlink.com 1.10,2013-02-15 17:23:00,
2013-02-15 12:38:00,29.0,24.0,30.10,NNW,348,10.0,14.0,82,0.00,,,0.00,weatherlink.com 1.10,2013-02-15 17:38:00,
2013-02-15 12:53:00,30.2,24.0,30.10,NW,317,8.0,13.0,78,0.00,,,0.00,weatherlink.com 1.10,2013-02-15 17:53:00,
2013-02-15 13:08:00,30.3,24.0,30.10,NW,304,7.0,12.0,77,0.00,,,0.00,weatherlink.com 1.10,2013-02-15 18:08:00,
2013-02-15 13:23:00,30.4,23.0,30.10,NNW,335,10.0,14.0,75,0.00,,,0.00,weatherlink.com 1.10,2013-02-15 18:23:00,
2013-02-15 13:38:00,30.2,24.0,30.09,NW,321,8.0,13.0,77,0.00,,,0.00,weatherlink.com 1.10,2013-02-15 18:38:00,
2013-02-15 13:53:00,29.3,24.0,30.10,NW,304,8.0,15.0,81,0.00,,,0.00,weatherlink.com 1.10,2013-02-15 18:53:00,
2013-02-15 14:08:00,29.7,25.0,30.10,NW,324,8.0,12.0,82,0.00,,,0.00,weatherlink.com 1.10,2013-02-15 19:08:00,
2013-02-15 14:23:00,29.7,24.0,30.10,NW,304,7.0,15.0,80,0.00,,,0.00,weatherlink.com 1.10,2013-02-15 19:23:00,
2013-02-15 14:38:00,29.2,24.0,30.09,NW,304,4.0,11.0,82,0.00,,,0.00,weatherlink.com 1.10,2013-02-15 19:38:00,
2013-02-15 14:53:00,29.7,24.0,30.10,WNW,288,8.0,15.0,79,0.00,,,0.00,weatherlink.com 1.10,2013-02-15 19:53:00,
2013-02-15 15:08:00,29.6,24.0,30.10,WNW,296,10.0,15.0,79,0.00,,,0.00,weatherlink.com 1.10,2013-02-15 20:08:00,
2013-02-15 15:24:00,29.6,22.0,30.10,WNW,302,13.0,16.0,73,0.00,,,0.00,weatherlink.com 1.10,2013-02-15 20:24:00,
2013-02-15 15:38:00,29.4,19.0,30.10,NW,311,12.0,16.0,66,0.00,,,0.00,weatherlink.com 1.10,2013-02-15 20:38:00,
2013-02-15 16:08:00,29.6,20.0,30.11,WNW,303,5.0,14.0,67,0.00,,,0.00,weatherlink.com 1.10,2013-02-15 21:08:00,
2013-02-15 16:23:00,30.8,20.0,30.11,WNW,292,13.0,15.0,65,0.00,,,0.00,weatherlink.com 1.10,2013-02-15 21:23:00,
2013-02-15 16:38:00,29.4,20.0,30.12,NW,310,12.0,17.0,67,0.00,,,0.00,weatherlink.com 1.10,2013-02-15 21:38:00,
2013-02-15 16:53:00,28.7,20.0,30.13,NW,304,9.0,13.0,69,0.00,,,0.00,weatherlink.com 1.10,2013-02-15 21:53:00,
2013-02-15 17:08:00,28.4,20.0,30.13,NW,304,14.0,15.0,70,0.00,,,0.00,weatherlink.com 1.10,2013-02-15 22:08:00,
2013-02-15 17:23:00,28.2,19.0,30.13,WNW,286,6.0,14.0,68,0.00,,,0.00,weatherlink.com 1.10,2013-02-15 22:23:00,
2013-02-15 17:38:00,28.2,20.0,30.14,WNW,288,1.0,14.0,70,0.00,,,0.00,weatherlink.com 1.10,2013-02-15 22:38:00,
2013-02-15 17:53:00,27.6,19.0,30.14,WNW,303,5.0,15.0,69,0.00,,,0.00,weatherlink.com 1.10,2013-02-15 22:53:00,
2013-02-15 18:08:00,26.9,19.0,30.14,WNW,292,5.0,9.0,71,0.00,,,0.00,weatherlink.com 1.10,2013-02-15 23:08:00,
2013-02-15 18:23:00,26.8,19.0,30.14,WNW,286,4.0,11.0,72,0.00,,,0.00,weatherlink.com 1.10,2013-02-15 23:23:00,
2013-02-15 18:38:00,26.2,18.0,30.15,WNW,299,7.0,13.0,72,0.00,,,0.00,weatherlink.com 1.10,2013-02-15 23:38:00,
2013-02-15 18:53:00,25.6,18.0,30.15,WNW,296,3.0,10.0,73,0.00,,,0.00,weatherlink.com 1.10,2013-02-15 23:53:00,
2013-02-15 19:08:00,25.3,18.0,30.16,WNW,290,3.0,11.0,73,0.00,,,0.00,weatherlink.com 1.10,2013-02-16 00:08:00,
2013-02-15 19:24:00,24.9,18.0,30.16,WNW,300,4.0,5.0,74,0.00,,,0.00,weatherlink.com 1.10,2013-02-16 00:24:00,
2013-02-15 19:39:00,24.5,18.0,30.16,WNW,300,1.0,5.0,76,0.00,,,0.00,weatherlink.com 1.10,2013-02-16 00:39:00,
2013-02-15 19:54:00,24.0,18.0,30.16,WNW,300,0.0,3.0,77,0.00,,,0.00,weatherlink.com 1.10,2013-02-16 00:54:00,
2013-02-15 20:08:00,23.2,18.0,30.16,WNW,300,0.0,2.0,79,0.00,,,0.00,weatherlink.com 1.10,2013-02-16 01:08:00,
2013-02-15 20:24:00,22.0,16.0,30.16,WNW,300,0.0,0.0,79,0.00,,,0.00,weatherlink.com 1.10,2013-02-16 01:24:00,
2013-02-15 20:38:00,21.3,17.0,30.16,WNW,300,0.0,0.0,82,0.00,,,0.00,weatherlink.com 1.10,2013-02-16 01:38:00,
2013-02-15 20:53:00,21.3,16.0,30.16,WNW,300,0.0,0.0,81,0.00,,,0.00,weatherlink.com 1.10,2013-02-16 01:53:00,
2013-02-15 21:08:00,20.4,16.0,30.16,WNW,300,0.0,0.0,83,0.00,,,0.00,weatherlink.com 1.10,2013-02-16 02:08:00,
2013-02-15 21:24:00,19.6,15.0,30.16,WNW,300,0.0,0.0,83,0.00,,,0.00,weatherlink.com 1.10,2013-02-16 02:24:00,
2013-02-15 21:39:00,19.5,16.0,30.16,WNW,300,0.0,0.0,86,0.00,,,0.00,weatherlink.com 1.10,2013-02-16 02:39:00,
2013-02-15 21:54:00,20.2,17.0,30.16,WNW,300,0.0,1.0,88,0.00,,,0.00,weatherlink.com 1.10,2013-02-16 02:54:00,
2013-02-15 22:09:00,21.7,19.0,30.16,WNW,300,0.0,0.0,88,0.00,,,0.00,weatherlink.com 1.10,2013-02-16 03:09:00,
2013-02-15 22:24:00,22.9,19.0,30.17,WNW,300,1.0,2.0,86,0.00,,,0.00,weatherlink.com 1.10,2013-02-16 03:24:00,
2013-02-15 22:39:00,23.7,20.0,30.16,WNW,300,1.0,2.0,84,0.00,,,0.00,weatherlink.com 1.10,2013-02-16 03:39:00,
2013-02-15 22:54:00,23.8,19.0,30.15,WNW,300,0.0,2.0,82,0.00,,,0.00,weatherlink.com 1.10,2013-02-16 03:54:00,
2013-02-15 23:09:00,23.1,18.0,30.15,WNW,300,0.0,1.0,81,0.00,,,0.00,weatherlink.com 1.10,2013-02-16 04:09:00,
2013-02-15 23:24:00,22.7,18.0,30.15,WNW,300,0.0,0.0,81,0.00,,,0.00,weatherlink.com 1.10,2013-02-16 04:24:00,
2013-02-15 23:39:00,22.6,18.0,30.14,WNW,300,0.0,0.0,81,0.00,,,0.00,weatherlink.com 1.10,2013-02-16 04:39:00,
2013-02-15 23:54:00,22.9,18.0,30.14,WNW,300,0.0,2.0,82,0.00,,,0.00,weatherlink.com 1.10,2013-02-16 04:54:00,